Location: Newark
(44.2886°N, 4.8431°E)
Time: 14:20:33
(UTC+00:00)

ZACube-1 - Pass Details

Date: 28 November 2020
Orbit: 584 x 665 km, 97.6° (Epoch: 14 January)

Event Time Altitude Azimuth Distance (km) Brightness Sun altitude
Rises 17:11:31 0° 206° (SSW) 2,875 ? -11.8°
Reaches altitude 10° 17:14:22 10° 226° (SW) 1,959 ? -12.3°
Maximum altitude 17:17:11 17° 268° (W) 1,534 ? -12.8°
Drops below altitude 10° 17:20:00 10° 310° (NW) 1,942 ? -13.3°
Sets 17:22:49 0° 331° (NNW) 2,839 ? -13.8°
